星链-32737 (STARLINK-32737)

导读 | 豆包AI

STARLINK-32737是美国SpaceX公司于2024年12月29日发射的星链(Starlink)低轨通信卫星,隶属于全球星链卫星互联网星座。星链星座旨在为全球尤其是偏远无基础设施地区提供高速低延迟宽带服务,单星采用平板设计、搭载霍尔推进器与通信载荷,具备自主避撞能力,寿命末期会主动离轨坠入大气层烧毁,该卫星的发射进一步扩充了星链星座的网络覆盖与服务能力。

基本信息
目录编号:
62444
目录名称:
STARLINK-32737
国际标识:
2024-251N
轨道中心:
EARTH
卫星名称:
星链-32737
卫星全名:
星链-32737 (STARLINK-32737)
卫星状态:
在轨 (已飞行486 天)
发射日期:
2024-12-29 UTC
国别 :
美国 (US)
星等 :
--
轨道信息
数据来源 国际轨道数据
星历时间: 2026-04-29T15:51:20+0800
15小时前
查看轨道信息
半长轴: 6853.35km
偏心率: 0.0001432
轨道倾角: 53.161°
近地点辐角 93.900°
升交点赤经 97.794°
平近点角 266.216°
近地点: 474.231km
远地点: 476.195km
周期: 94.105分钟
每日圈数: 15.30201
详细信息
固有亮度:
5
最大亮度:
2.5
卫星平台:
Starlink V1.0
覆盖范围:
全球
运营商:
太空探索技术公司
运营商所在国:
美国
制造商(研发单位):
太空探索技术公司
制造商所在国:
美国
使用方式:
暂无
卫星简介
Starlink 计划是 SpaceX 推出的全球卫星互联网项目,通过发射低轨道卫星,为全球尤其是偏远地区提供高速、低延迟的互联网服务。自 2019 年起,Starlink 已部署数千颗卫星,旨在缩小全球数字鸿沟,推动互联网普及。该项目还为军事、航空等行业提供通信支持,带来广泛经济效益。
2D轨道图
3D轨道图
轨道高度分析图
轨道倾角分析图
轨道综合分析图
查看轨道综合分析图